CDT,Max TemperatureF,Mean TemperatureF,Min TemperatureF,Max Dew PointF,MeanDew PointF,Min DewpointF,Max Humidity, Mean Humidity, Min Humidity, Max Sea Level PressureIn, Mean Sea Level PressureIn, Min Sea Level PressureIn, Max VisibilityMiles, Mean VisibilityMiles, Min VisibilityMiles, Max Wind SpeedMPH, Mean Wind SpeedMPH, Max Gust SpeedMPH,PrecipitationIn, CloudCover, Events, WindDirDegrees
2013-5-1,75,72,66,70,66,63,88,82,73,29.92,29.89,29.86,7,6,4,12,6,20,0.00,7,Rain,106
2013-5-2,75,70,66,64,63,63,88,76,65,29.96,29.93,29.91,7,7,7,16,8,23,0.00,7,Rain,87
2013-5-3,73,64,55,63,59,50,94,84,69,29.95,29.91,29.89,10,6,2,12,7,21,0.00,7,Rain,1
2013-5-4,71,56,42,48,36,30,87,41,22,30.02,29.94,29.89,10,10,10,12,6,17,0.00,0,,306
2013-5-5,66,62,57,52,40,37,82,46,35,29.99,29.94,29.91,10,10,10,14,9,23,0.00,2,,325
2013-5-6,75,60,44,55,46,39,93,51,27,30.04,29.99,29.93,10,10,10,14,6,23,0.00,2,,259
2013-5-7,80,66,53,57,52,48,88,51,32,30.06,30.02,29.99,10,10,10,7,2,,0.00,3,,302
2013-5-8,82,70,57,61,56,52,94,55,35,30.12,30.09,30.06,10,10,7,8,3,,0.00,3,,214
2013-5-9,80,70,59,66,62,57,94,65,48,30.14,30.11,30.06,10,9,5,13,6,18,0.00,2,,160
2013-5-10,71,68,66,64,63,63,88,85,78,30.10,30.01,29.91,7,6,2,12,8,20,0.00,6,Rain-Thunderstorm,181
2013-5-11,75,70,64,66,64,63,94,79,69,30.05,30.01,29.96,7,6,2,6,4,,0.00,6,Rain-Thunderstorm,133
2013-5-12,80,70,60,57,55,52,88,54,39,30.13,30.10,30.08,10,10,10,10,8,18,0.00,1,,15
2013-5-13,80,68,55,55,42,32,77,41,20,30.30,30.25,30.20,10,10,10,9,6,,0.00,0,,43
2013-5-14,82,68,55,61,54,48,88,52,32,30.29,30.23,30.17,10,10,7,12,4,16,0.00,0,,165
2013-5-15,82,70,57,61,54,45,94,53,26,30.22,30.17,30.06,10,7,5,12,3,,0.00,0,,170
2013-5-16,84,74,64,70,65,61,88,67,45,30.06,30.01,29.96,10,8,7,13,7,21,0.00,5,,167
2013-5-17,82,80,77,70,69,68,78,69,62,30.05,30.02,29.99,10,10,7,13,11,18,0.00,4,,162
2013-5-18,87,80,73,72,70,66,94,67,49,30.06,30.03,30.02,10,9,3,12,5,,0.00,3,,170
2013-5-19,82,80,77,72,71,70,83,74,70,30.04,30.02,29.98,10,10,7,10,6,,0.00,5,,166
2013-5-20,86,80,75,72,71,70,89,70,58,30.02,30.00,29.96,10,10,8,15,8,17,0.00,5,,162
2013-5-21,87,78,69,72,69,66,88,66,52,29.98,29.94,29.87,10,9,5,12,6,17,0.00,4,,169
2013-5-22,78,73,68,70,66,64,94,77,61,30.05,29.96,29.92,10,6,3,12,4,17,0.00,4,Rain,13
2013-5-23,89,80,71,72,69,66,94,64,49,30.06,30.03,29.99,10,10,7,9,2,,0.00,3,,182
2013-5-24,89,80,71,68,65,61,83,56,38,30.15,30.12,30.09,10,10,7,10,4,,0.00,2,,29
2013-5-25,84,74,64,63,52,45,64,41,28,30.25,30.20,30.15,10,8,7,9,6,,0.00,1,,114
2013-5-26,84,75,66,64,60,55,88,54,39,30.20,30.17,30.12,10,10,10,12,5,16,0.00,1,,141
2013-5-27,84,81,77,70,64,59,74,54,42,30.15,30.11,30.06,10,10,7,15,9,22,0.00,3,,149
2013-5-28,84,75,66,70,63,59,88,58,45,30.09,30.06,30.02,10,10,10,12,7,21,0.00,2,,139
2013-5-29,84,81,78,73,71,70,79,72,66,30.04,30.02,29.98,10,8,7,20,11,25,0.00,6,Rain,126
2013-5-30,84,80,77,73,71,70,83,73,62,30.04,30.01,29.98,7,7,5,17,13,23,0.00,7,Rain,132
2013-5-31,84,81,78,73,72,72,79,72,66,30.03,30.00,29.89,10,9,7,14,9,18,0.00,6,,150